Date String (YYYY-MM-DD hh:mm:ss) UTC,Instrument flags,absolute air pressure of the measurement (hPa),sample flow rate (lpm),inlet stack bypass flow (lpm),air temperature of the measurement (°C),ambient temperature measured by the external sensor (°C),aerosol sample conditioner tube jacket temperature (°C),OPC LED temperature (°C),internal box temperature (°C),relative humidity of the measurement (%),span deviation,mass concentration of particles derived from Lorenz-Mie calculation of OPC scattering (μg/m³),mass concentration of particles derived from Lorenz-Mie calculation of OPC scattering (μg/m³),mass concentration of particles derived from Lorenz-Mie calculation of OPC scattering (μg/m³)
DateTimeUTC,F1_M11,P_M11,Q1_M11,Q2_M11,T1_M11,T2_M11,T3_M11,T4_M11,T5_M11,U1_M11,ZSPAN_M11,X2_M11,X0_M11,X1_M11
2023-08-29 12:00:00,SystemResetWarning,0839.2,5.01,000.00,028.9,027.5,000.0,037.5,030.3,25.4,0000.0,0003.01,0004.34,0002.52
2023-08-29 12:01:00,SystemResetWarning,0839.1,5.00,000.00,028.9,027.5,000.0,037.5,030.4,25.4,0000.0,0002.99,0004.16,0002.54
2023-08-29 12:02:00,SystemResetWarning,0839.2,5.00,000.00,028.9,027.5,000.0,037.5,030.4,25.4,0000.0,0002.98,0004.05,0002.56
2023-08-29 12:03:00,SystemResetWarning,0839.1,5.00,000.00,028.9,027.5,000.0,037.5,030.4,25.3,0000.0,0002.98,0004.03,0002.58
2023-08-29 12:04:00,SystemResetWarning,0839.1,5.00,000.00,028.9,027.5,000.0,037.5,030.4,25.3,0000.0,0003.01,0004.30,0002.59
2023-08-29 12:05:00,SystemResetWarning,0839.1,5.00,000.00,028.9,027.5,000.0,037.5,030.4,25.3,0000.0,0002.98,0004.17,0002.59
2023-08-29 12:06:00,SystemResetWarning,0839.1,4.99,000.00,028.9,027.5,000.0,037.5,030.4,25.2,0000.0,0002.96,0004.07,0002.60
2023-08-29 12:07:00,SystemResetWarning,0839.1,4.99,000.00,028.9,027.5,000.0,037.5,030.4,25.3,0000.0,0002.97,0004.13,0002.62
2023-08-29 12:08:00,SystemResetWarning,0839.1,5.00,000.00,028.9,027.5,000.0,037.5,030.4,25.2,0000.0,0003.06,0004.81,0002.64
2023-08-29 12:09:00,SystemResetWarning,0839.1,5.00,000.00,028.9,027.5,000.0,037.5,030.4,25.1,0000.0,0003.07,0004.80,0002.66
2023-08-29 12:10:00,SystemResetWarning,0839.1,5.00,000.00,028.9,027.6,000.0,037.5,030.4,25.1,0000.0,0003.10,0004.90,0002.68
2023-08-29 12:11:00,SystemResetWarning,0839.1,5.00,000.00,028.9,027.6,000.0,037.5,030.4,25.1,0000.0,0003.13,0005.02,0002.69
2023-08-29 12:12:00,SystemResetWarning,0839.1,5.01,000.00,028.9,027.6,000.0,037.5,030.4,25.1,0000.0,0003.15,0005.13,0002.70
2023-08-29 12:13:00,SystemResetWarning,0839.1,5.00,000.00,028.9,027.6,000.0,037.6,030.4,25.1,0000.0,0003.16,0005.21,0002.70
2023-08-29 12:14:00,SystemResetWarning,0839.1,4.99,000.00,028.9,027.6,000.0,037.6,030.4,25.1,0000.0,0003.18,0005.29,0002.70
2023-08-29 12:15:00,SystemResetWarning,0839.1,5.00,000.00,028.9,027.6,000.0,037.6,030.4,25.1,0000.0,0003.18,0005.12,0002.72
2023-08-29 12:16:00,SystemResetWarning,0839.1,4.99,000.00,028.9,027.6,000.0,037.6,030.5,25.1,0000.0,0003.23,0005.44,0002.73
2023-08-29 12:17:00,SystemResetWarning,0839.1,5.01,000.00,028.9,027.6,000.0,037.6,030.4,25.1,0000.0,0003.26,0005.63,0002.74
2023-08-29 12:18:00,SystemResetWarning,0839.2,5.01,000.00,028.9,027.6,000.0,037.6,030.5,25.1,0000.0,0003.26,0005.61,0002.74
2023-08-29 12:19:00,SystemResetWarning,0839.1,4.99,000.00,028.9,026.4,000.0,037.5,030.3,25.0,0000.0,0003.22,0004.82,0002.74
2023-08-29 12:20:00,SystemResetWarning,0839.1,5.00,000.00,028.8,024.6,000.0,037.3,029.9,25.1,0000.0,0003.21,0004.84,0002.72
2023-08-29 12:21:00,SystemResetWarning,0839.1,5.01,000.00,028.7,024.1,000.0,037.2,029.6,25.3,0000.0,0003.21,0004.81,0002.74
2023-08-29 12:22:00,SystemResetWarning,0839.1,5.00,000.00,028.5,024.3,000.0,037.2,029.4,25.6,0000.0,0003.22,0004.82,0002.73
2023-08-29 12:23:00,SystemResetWarning,0839.1,5.00,000.00,028.4,024.7,000.0,037.2,029.5,25.7,0000.0,0003.19,0004.66,0002.73
2023-08-29 12:24:00,SystemResetWarning,0839.1,5.00,000.00,028.4,025.1,000.0,037.2,029.6,25.8,0000.0,0003.20,0004.68,0002.72
2023-08-29 12:25:00,SystemResetWarning,0839.2,5.00,000.00,028.4,025.5,000.0,037.2,029.7,25.8,0000.0,0003.18,0004.55,0002.72
2023-08-29 12:26:00,SystemResetWarning,0839.1,5.00,000.00,028.4,025.8,000.0,037.2,029.7,25.8,0000.0,0003.17,0004.56,0002.71
2023-08-29 12:27:00,SystemResetWarning,0839.2,5.01,000.00,028.4,026.0,000.0,037.2,029.8,25.8,0000.0,0003.16,0004.63,0002.70
2023-08-29 12:28:00,SystemResetWarning,0839.2,5.00,000.00,028.4,026.2,000.0,037.1,029.8,25.8,0000.0,0003.14,0004.66,0002.71
2023-08-29 12:29:00,SystemResetWarning,0839.2,5.00,000.00,028.4,026.4,000.0,037.1,029.8,25.7,0000.0,0003.16,0004.81,0002.72
2023-08-29 12:30:00,SystemResetWarning,0839.2,4.99,000.00,028.4,026.5,000.0,037.1,029.9,25.7,0000.0,0003.16,0004.99,0002.72
2023-08-29 12:31:00,SystemResetWarning,0839.1,5.00,000.00,028.4,026.7,000.0,037.1,029.9,25.7,0000.0,0003.18,0005.15,0002.73
2023-08-29 12:32:00,SystemResetWarning,0839.1,5.00,000.00,028.4,026.8,000.0,037.1,029.9,25.7,0000.0,0003.19,0005.24,0002.72
2023-08-29 12:33:00,SystemResetWarning,0839.1,5.00,000.00,028.4,026.8,000.0,037.1,029.9,25.7,0000.0,0003.18,0005.20,0002.71
2023-08-29 12:34:00,SystemResetWarning,0839.2,5.00,000.00,028.4,026.9,000.0,037.1,030.0,25.7,0000.0,0003.18,0005.24,0002.71
2023-08-29 12:35:00,SystemResetWarning,0839.2,5.00,000.00,028.4,027.0,000.0,037.1,030.0,25.6,0000.0,0003.17,0005.27,0002.72
2023-08-29 12:36:00,SystemResetWarning,0839.2,4.99,000.00,028.4,027.0,000.0,037.1,030.0,25.6,0000.0,0003.20,0005.46,0002.72
2023-08-29 12:37:00,SystemResetWarning,0839.2,5.01,000.00,028.5,027.0,000.0,037.1,030.0,25.6,0000.0,0003.21,0005.42,0002.72
2023-08-29 12:38:00,SystemResetWarning,0839.2,5.00,000.00,028.5,027.1,000.0,037.1,030.0,25.6,0000.0,0003.22,0005.32,0002.73
2023-08-29 12:39:00,SystemResetWarning,0839.2,5.01,000.00,028.5,027.1,000.0,037.1,030.1,25.6,0000.0,0003.23,0005.35,0002.74
2023-08-29 12:40:00,SystemResetWarning,0839.2,5.00,000.00,028.5,027.2,000.0,037.1,030.1,25.6,0000.0,0003.28,0006.11,0002.75
2023-08-29 12:41:00,SystemResetWarning,0839.2,4.99,000.00,028.5,027.2,000.0,037.1,030.1,25.6,0000.0,0003.30,0006.01,0002.76
2023-08-29 12:42:00,SystemResetWarning,0839.2,4.99,000.00,028.5,027.2,000.0,037.1,030.1,25.6,0000.0,0003.28,0005.83,0002.75
2023-08-29 12:43:00,SystemResetWarning,0839.2,4.99,000.00,028.6,027.3,000.0,037.2,030.2,25.6,0000.0,0003.29,0005.82,0002.75
2023-08-29 12:44:00,SystemResetWarning,0839.2,5.00,000.00,028.6,027.3,000.0,037.2,030.2,25.8,0000.0,0003.28,0005.79,0002.76
2023-08-29 12:45:00,SystemResetWarning,0839.2,5.00,000.00,028.6,027.3,000.0,037.2,030.2,26.7,0000.0,0003.29,0005.87,0002.78
2023-08-29 12:46:00,SystemResetWarning,0839.2,5.00,000.00,028.6,027.3,000.0,037.2,030.2,26.2,0000.0,0003.29,0005.84,0002.77
2023-08-29 12:47:00,SystemResetWarning,0839.2,5.00,000.00,028.6,027.4,000.0,037.2,030.2,25.7,0000.0,0003.27,0005.67,0002.78
2023-08-29 12:48:00,SystemResetWarning,0839.2,5.00,000.00,028.6,027.4,000.0,037.2,030.2,25.5,0000.0,0003.26,0005.65,0002.78
2023-08-29 12:49:00,SystemResetWarning,0839.2,5.00,000.00,028.7,027.4,000.0,037.2,030.2,25.4,0000.0,0003.27,0005.64,0002.79
2023-08-29 12:50:00,SystemResetWarning,0839.2,5.00,000.00,028.7,027.4,000.0,037.2,030.2,25.5,0000.0,0003.23,0005.52,0002.77
2023-08-29 12:51:00,SystemResetWarning,0839.2,5.00,000.00,028.7,027.4,000.0,037.2,030.2,25.3,0000.0,0003.19,0004.61,0002.77
2023-08-29 12:52:00,SystemResetWarning,0839.3,5.00,000.00,028.7,027.4,000.0,037.3,030.3,25.3,0000.0,0003.15,0004.37,0002.77
2023-08-29 12:53:00,SystemResetWarning,0839.3,5.00,000.00,028.7,027.4,000.0,037.3,030.3,25.3,0000.0,0003.16,0004.37,0002.77
2023-08-29 12:54:00,SystemResetWarning,0839.3,5.00,000.00,028.7,027.4,000.0,037.3,030.3,25.4,0000.0,0003.16,0004.31,0002.78
2023-08-29 12:55:00,SystemResetWarning,0839.3,5.01,000.00,028.7,027.4,000.0,037.3,030.3,25.6,0000.0,0003.17,0004.62,0002.79
2023-08-29 12:56:00,SystemResetWarning,0839.3,5.00,000.00,028.7,027.4,000.0,037.3,030.3,25.6,0000.0,0003.20,0005.87,0002.79
2023-08-29 12:57:00,SystemResetWarning,0839.3,5.00,000.00,028.7,027.4,000.0,037.3,030.3,25.7,0000.0,0003.21,0005.85,0002.81
2023-08-29 12:58:00,SystemResetWarning,0839.3,5.00,000.00,028.7,027.4,000.0,037.3,030.3,25.8,0000.0,0003.21,0005.85,0002.83
2023-08-29 12:59:00,SystemResetWarning,0839.4,5.00,000.00,028.7,027.4,000.0,037.4,030.3,25.3,0000.0,0003.20,0005.85,0002.82
